Regional Weather Roundup
Issued by NWS Sterling, VA

Home | Current Version | Previous Version | Graphics & Text | Print | Product List | Glossary On
Versions: 1 2 3 4 5 6 7 8 9 10 11 12 13 14 15 16 17 18 19 20 21 22 23 24 25 26 27 28 29 30 31 32 33 34 35 36 37 38 39 40 41 42 43 44 45 46 47 48 49 50
000
ASUS41 KLWX 201810
RWRLWX

REGIONAL WEATHER ROUNDUP
NATIONAL WEATHER SERVICE BALTIMORE MD/WASHINGTON DC
200 PM EDT WED AUG 20 2014

Note: "FAIR" indicates few or no clouds below 12,000 feet
with no significant weather and/or obstructions to visibility.
 TC=TEMPERATURE CELSIUS

 * =Non NWS site. Station does not report precipitation (e.g. rain,
    snow, etc.), thunder, or fog.

DCZ001-MDZ009-015-VAZ040>042-051-053>054-201900-
WASHINGTON METRO
  /KDAA//-FT BELVOIR

CITY           SKY/WX    TMP DP  RH WIND       PRES   REMARKS
WASHINGTON NAT MOSUNNY   87  63  44 S13       29.95F
DULLES         PTSUNNY   83  65  54 S13G22    29.95F
ANDREWS AFB    SUNNY     83  64  52 S9        29.96F
QUANTICO       MOSUNNY   83  66  56 SW9       29.97F
COLLEGE PARK*  MOSUNNY   86  64  48 SE8       29.95F
LEESBURG*      PTSUNNY   88  70  55 S14       29.95F HX  92
MANASSAS*      SUNNY     84  66  54 S15       29.95F
GAITHERSBURG*  SUNNY     82  64  54 S10       29.99F

$$

MDZ006>007-011-014-201900-
BALTIMORE METRO

CITY           SKY/WX    TMP DP  RH WIND       PRES   REMARKS
BWI AIRPORT    PTSUNNY   82  62  50 SE7G20    29.96F
MD SCIENCE CTR   N/A     81  62  52 MISG      29.96F
MARTIN STATE   MOSUNNY   82  66  57 E9        29.99F
ANNAPOLIS      SUNNY     79  63  57 SE8       29.97F
FORT MEADE*    MOSUNNY   82  61  47 SE14      29.98F

$$

MDZ012-015-019>023-201900-
MARYLAND EASTERN SHORE

CITY           SKY/WX    TMP DP  RH WIND       PRES   REMARKS
OCEAN CITY     SUNNY     78  68  71 E8        29.99F
SALISBURY      SUNNY     84  60  44 SE8       29.98F
BAY BRIDGE AP*   N/A     82  57  42 SE7       29.97F
CAMBRIDGE*     SUNNY     84  61  45 SE7       29.97F
EASTON*        MOSUNNY   86  63  45 S8        30.01F

$$

MDZ017>025-201900-
SOUTHERN MARYLAND

CITY           SKY/WX    TMP DP  RH WIND       PRES   REMARKS
PATUXENT RIVER MOSUNNY   81  55  40 SE8       29.98F
ST INIGOES     SUNNY     81  61  50 S8        29.98F
LEONARDTOWN*   SUNNY     82  55  39 SE7       29.99F

$$

MDZ003>005-201900-
NORTH CENTRAL MARYLAND

CITY           SKY/WX    TMP DP  RH WIND       PRES   REMARKS
FREDERICK*     PTSUNNY   88  68  51 S12G17    29.97F HX  91
HAGERSTOWN APT TSTM      79  68  69 S8        29.95R
WESTMINSTER*   PTSUNNY   84  66  54 SE9       29.97S

$$

MDZ501>502-201900-
WESTERN MARYLAND

CITY           SKY/WX    TMP DP  RH WIND       PRES   REMARKS
OAKLAND*       MOSUNNY   72  64  78 SW10G16   30.05S
CUMBERLAND*    MOSUNNY   86  70  58 N3        29.97F HX  90

$$

VAZ025>031-201900-
SHENANDOAH VALLEY

CITY           SKY/WX    TMP DP  RH WIND       PRES   REMARKS
WINCHESTER*    TSTM      72  70  94 SW14G21   29.97R VSB 1
STAUNTON*      CLOUDY    83  67  59 S10       29.99F

$$

WVZ021-048>050-054>055-201900-
EASTERN WEST VIRGINIA PANHANDLE

CITY           SKY/WX    TMP DP  RH WIND       PRES   REMARKS
MARTINSBURG    HVY RAIN  72  68  87 SW8G20    29.96R VSB 1/4
PETERSBURG*    NOT AVBL

$$

VAZ036>039-050-201900-
CENTRAL FOOTHILLS

CITY           SKY/WX    TMP DP  RH WIND       PRES   REMARKS
CHARLOTTESVILL PTSUNNY   83  70  64 S13       29.96F
ORANGE*        PTSUNNY   84  70  61 SE7       29.97F

$$

VAZ055>057-201900-
NORTH AND CENTRAL PIEDMONT

CITY           SKY/WX    TMP DP  RH WIND       PRES   REMARKS
FREDERICKSBRG* MOSUNNY   87  66  49 SE6       29.96S
STAFFORD*      SUNNY     83  65  55 S6        30.00F

$$

NCZ024-NYZ072-PAZ021-071-VAZ022-071-201900-
OTHER REGIONAL OBSERVATIONS

CITY           SKY/WX    TMP DP  RH WIND       PRES   REMARKS
NEW YORK CITY  MOSUNNY   82  58  43 VRB6      30.01F
PHILADELPHIA   MOSUNNY   83  61  47 SW8       29.97F
PITTSBURGH     PTSUNNY   78  65  63 SW10      29.95S
ROANOKE        PTSUNNY   81  69  67 S5        30.03S
RICHMOND       MOSUNNY   86  66  51 SE7       29.97F
RALEIGH        MOSUNNY   86  70  58 SE5       29.98F HX  90

$$

ANZ530>537-201900-
MARINE OBSERVATIONS

STATION/POSITION TIME  TEMP    WIND        PRES
                       AIR SEA DIR/SP/G
                 (UTC) (F)     (DEG/KT/KT) (MB)
THOMAS PT LIGHT  1800   77 78  200/  4/  5 1015.6F
BALT KEY BRIDGE  1800   77     110/ 13/ 15 1014.5F
COVE POINT       1800   77     190/ 11/ 12 1015.0F
LEWISETTA        1800   77 80  110/ 10/ 12 1015.0F
SOLOMONS ISLAND  1800      81                N/A
PINEY POINT      1800          150/  9/ 10   N/A

$$



USA.gov is the U.S. government's official web portal to all federal, state and local government web resources and services.